| time (UTC) | temp F | wind direction | speed MPH | gust MPH | rain 1hr in | rain 24hr in | rain mn in | humidity % | barometer mb |
| 20260503024238 | 63 | 89 | 0.0 | 1.0 | 0.00 | 0.00 | 0.00 | 76 | 1000.0 |
| 20260503023735 | 63 | 120 | 1.0 | 2.0 | 0.00 | 0.00 | 0.00 | 76 | 1000.0 |
| 20260503023232 | 63 | 49 | 0.0 | 1.0 | 0.00 | 0.00 | 0.00 | 77 | 999.9 |
| 20260503022728 | 63 | 53 | 0.0 | 1.0 | 0.00 | 0.00 | 0.00 | 77 | 999.8 |
| 20260503022228 | 64 | 91 | 0.0 | 0.0 | 0.00 | 0.00 | 0.00 | 76 | 1000.0 |
| 20260503021725 | 63 | 122 | 0.0 | 1.0 | 0.00 | 0.00 | 0.00 | 76 | 1000.0 |
| 20260503021221 | 64 | 82 | 0.0 | 1.0 | 0.00 | 0.00 | 0.00 | 76 | 999.9 |
| 20260503020719 | 64 | 38 | 0.0 | 1.0 | 0.00 | 0.00 | 0.00 | 76 | 1000.1 |
| 20260503020216 | 64 | 29 | 1.0 | 2.0 | 0.00 | 0.00 | 0.00 | 76 | 1000.2 |
| 20260503015713 | 65 | 17 | 0.0 | 0.0 | 0.00 | 0.00 | 0.00 | 76 | 1000.5 |
| 20260503015210 | 65 | 79 | 0.0 | 1.0 | 0.00 | 0.00 | 0.00 | 76 | 1000.7 |
| 20260503014706 | 66 | 65 | 0.0 | 1.0 | 0.00 | 0.00 | 0.00 | 75 | 1000.8 |
| 20260503014204 | 64 | 88 | 1.0 | 1.0 | 0.00 | 0.00 | 0.00 | 75 | 1000.8 |
| 20260503013700 | 66 | 17 | 1.0 | 1.0 | 0.00 | 0.00 | 0.00 | 73 | 1000.9 |
| 20260503013158 | 67 | 145 | 1.0 | 3.0 | 0.00 | 0.00 | 0.00 | 73 | 1000.9 |
| 20260503012655 | 66 | 147 | 1.0 | 1.0 | 0.00 | 0.00 | 0.00 | 72 | 1001.1 |
| 20260503012152 | 66 | 181 | 2.0 | 2.0 | 0.00 | 0.00 | 0.00 | 71 | 1001.4 |
| 20260503011648 | 66 | 238 | 2.0 | 2.0 | 0.00 | 0.00 | 0.00 | 69 | 1001.4 |
| 20260503011145 | 66 | 145 | 0.0 | 0.0 | 0.00 | 0.00 | 0.00 | 69 | 1001.4 |
| 20260503010641 | 66 | 200 | 2.0 | 3.0 | 0.00 | 0.00 | 0.00 | 69 | 1001.7 |
| 20260503010140 | 66 | 210 | 3.0 | 3.0 | 0.00 | 0.00 | 0.00 | 68 | 1001.5 |
| 20260503005637 | 66 | 275 | 2.0 | 3.0 | 0.00 | 0.00 | 0.00 | 67 | 1001.4 |
| 20260503005134 | 66 | 213 | 2.0 | 3.0 | 0.00 | 0.00 | 0.00 | 66 | 1001.4 |
| 20260503004630 | 66 | 212 | 2.0 | 3.0 | 0.00 | 0.00 | 0.00 | 66 | 1001.3 |
| 20260503004129 | 66 | 245 | 2.0 | 2.0 | 0.00 | 0.00 | 0.00 | 65 | 1001.5 |
| 20260503003625 | 66 | 197 | 0.0 | 0.0 | 0.00 | 0.00 | 0.00 | 64 | 1001.2 |
| 20260503003122 | 66 | 269 | 1.0 | 5.0 | 0.00 | 0.00 | 0.00 | 63 | 1001.4 |
| 20260503002619 | 67 | 308 | 3.0 | 3.0 | 0.00 | 0.00 | 0.00 | 62 | 1001.1 |
| 20260503002116 | 67 | 25 | 0.0 | 1.0 | 0.00 | 0.00 | 0.00 | 60 | 1000.7 |
| 20260503001612 | 69 | 67 | 1.0 | 2.0 | 0.00 | 0.00 | 0.00 | 57 | 1000.7 |
| 20260503001109 | 69 | 120 | 0.0 | 1.0 | 0.00 | 0.00 | 0.00 | 52 | 1000.8 |
| 20260503000607 | 69 | 148 | 1.0 | 2.0 | 0.00 | 0.00 | 0.00 | 51 | 1000.7 |
| 20260503000104 | 69 | 236 | 0.0 | 1.0 | 0.00 | 0.00 | 0.00 | 51 | 1000.3 |
| 20260502235600 | 69 | 232 | 0.0 | 1.0 | 0.00 | 0.00 | 0.00 | 50 | 1000.2 |
| 20260502235058 | 69 | 191 | 1.0 | 2.0 | 0.00 | 0.00 | 0.00 | 51 | 1000.0 |
| 20260502234554 | 69 | 189 | 1.0 | 1.0 | 0.00 | 0.00 | 0.00 | 51 | 999.9 |
| 20260502234052 | 68 | 194 | 1.0 | 2.0 | 0.00 | 0.00 | 0.00 | 53 | 999.8 |
| 20260502233551 | 68 | 242 | 0.0 | 2.0 | 0.00 | 0.00 | 0.00 | 54 | 1000.0 |
| 20260502233048 | 68 | 210 | 1.0 | 1.0 | 0.00 | 0.00 | 0.00 | 57 | 1000.1 |
| 20260502232544 | 67 | 119 | 1.0 | 1.0 | 0.00 | 0.00 | 0.00 | 59 | 999.8 |
| 20260502232042 | 67 | 108 | 1.0 | 1.0 | 0.00 | 0.00 | 0.00 | 60 | 1000.0 |
| 20260502231539 | 67 | 109 | 0.0 | 1.0 | 0.00 | 0.00 | 0.00 | 60 | 1000.1 |
| 20260502231037 | 67 | 103 | 0.0 | 1.0 | 0.00 | 0.00 | 0.00 | 61 | 1000.1 |
| 20260502230535 | 68 | 78 | 0.0 | 0.0 | 0.00 | 0.00 | 0.00 | 60 | 1000.0 |
| 20260502230033 | 68 | 96 | 2.0 | 3.0 | 0.00 | 0.00 | 0.00 | 59 | 999.9 |
| 20260502225528 | 69 | 54 | 1.0 | 1.0 | 0.00 | 0.00 | 0.00 | 57 | 1000.0 |
| 20260502225025 | 69 | 356 | 2.0 | 2.0 | 0.00 | 0.00 | 0.00 | 53 | 1000.0 |
| 20260502224521 | 69 | 130 | 0.0 | 0.0 | 0.00 | 0.00 | 0.00 | 52 | 999.9 |
| 20260502224019 | 68 | 145 | 1.0 | 1.0 | 0.00 | 0.00 | 0.00 | 53 | 1000.0 |
| 20260502223516 | 68 | 123 | 1.0 | 1.0 | 0.00 | 0.00 | 0.00 | 55 | 1000.2 |
| 20260502223015 | 68 | 123 | 1.0 | 1.0 | 0.00 | 0.00 | 0.00 | 56 | 1000.3 |
| 20260502222512 | 68 | 121 | 1.0 | 2.0 | 0.00 | 0.00 | 0.00 | 57 | 1000.4 |
| 20260502222008 | 68 | 198 | 0.0 | 2.0 | 0.00 | 0.00 | 0.00 | 59 | 1000.6 |
| 20260502221503 | 68 | 57 | 1.0 | 2.0 | 0.00 | 0.00 | 0.00 | 59 | 1000.5 |
| 20260502221001 | 69 | 98 | 3.0 | 3.0 | 0.00 | 0.00 | 0.00 | 57 | 1000.8 |
| 20260502220456 | 71 | 64 | 3.0 | 5.0 | 0.00 | 0.00 | 0.00 | 52 | 1000.8 |
| 20260502215953 | 72 | 33 | 0.0 | 2.0 | 0.00 | 0.00 | 0.00 | 43 | 1001.0 |
| 20260502215451 | 71 | 82 | 0.0 | 1.0 | 0.00 | 0.00 | 0.00 | 44 | 1000.8 |
| 20260502214947 | 69 | 122 | 0.0 | 0.0 | 0.00 | 0.00 | 0.00 | 48 | 1000.8 |
| 20260502214444 | 69 | 129 | 1.0 | 2.0 | 0.00 | 0.00 | 0.00 | 52 | 1000.6 |
| 20260502213942 | 68 | 116 | 0.0 | 1.0 | 0.00 | 0.00 | 0.00 | 55 | 1000.8 |
| 20260502213438 | 67 | 115 | 0.0 | 0.0 | 0.00 | 0.00 | 0.00 | 59 | 1000.8 |
| 20260502212937 | 66 | 116 | 1.0 | 1.0 | 0.00 | 0.00 | 0.00 | 63 | 1000.6 |
| 20260502212435 | 66 | 142 | 1.0 | 2.0 | 0.00 | 0.00 | 0.00 | 68 | 1000.9 |
| 20260502211932 | 65 | 73 | 0.0 | 0.0 | 0.00 | 0.00 | 0.00 | 71 | 1000.9 |
| 20260502211428 | 65 | 74 | 1.0 | 1.0 | 0.00 | 0.00 | 0.00 | 72 | 1001.0 |
| 20260502210925 | 66 | 76 | 0.0 | 0.0 | 0.00 | 0.00 | 0.00 | 71 | 1001.1 |
| 20260502210422 | 66 | 65 | 1.0 | 2.0 | 0.00 | 0.00 | 0.00 | 70 | 1001.2 |
| 20260502205919 | 66 | 92 | 0.0 | 1.0 | 0.00 | 0.00 | 0.00 | 68 | 1001.2 |
| 20260502205415 | 66 | 107 | 0.0 | 1.0 | 0.00 | 0.00 | 0.00 | 68 | 1001.3 |
| 20260502204913 | 66 | 106 | 0.0 | 1.0 | 0.00 | 0.00 | 0.00 | 69 | 1001.3 |
| 20260502204409 | 66 | 106 | 0.0 | 1.0 | 0.00 | 0.00 | 0.00 | 69 | 1001.6 |
| 20260502203908 | 66 | 111 | 1.0 | 1.0 | 0.00 | 0.00 | 0.00 | 70 | 1001.5 |
| 20260502203405 | 66 | 75 | 1.0 | 2.0 | 0.00 | 0.00 | 0.00 | 72 | 1001.7 |
| 20260502202900 | 66 | 77 | 0.0 | 2.0 | 0.00 | 0.00 | 0.00 | 73 | 1001.6 |
| 20260502202358 | 66 | 78 | 0.0 | 0.0 | 0.00 | 0.00 | 0.00 | 74 | 1001.7 |
| 20260502201855 | 66 | 78 | 0.0 | 0.0 | 0.00 | 0.00 | 0.00 | 73 | 1001.7 |
| 20260502201351 | 66 | 81 | 0.0 | 0.0 | 0.00 | 0.00 | 0.00 | 73 | 1001.8 |
| 20260502200848 | 66 | 81 | 0.0 | 0.0 | 0.00 | 0.00 | 0.00 | 73 | 1001.9 |
| 20260502200343 | 65 | 76 | 1.0 | 1.0 | 0.00 | 0.00 | 0.00 | 75 | 1002.0 |
| 20260502195842 | 65 | 71 | 0.0 | 1.0 | 0.00 | 0.00 | 0.00 | 75 | 1002.1 |
| 20260502195338 | 66 | 68 | 1.0 | 1.0 | 0.00 | 0.00 | 0.00 | 75 | 1002.0 |
| 20260502194835 | 66 | 40 | 0.0 | 0.0 | 0.00 | 0.00 | 0.00 | 75 | 1001.9 |
| 20260502194332 | 66 | 23 | 0.0 | 1.0 | 0.00 | 0.00 | 0.00 | 75 | 1002.2 |
| 20260502193828 | 66 | 31 | 1.0 | 2.0 | 0.00 | 0.00 | 0.00 | 74 | 1002.2 |
| 20260502193325 | 66 | 91 | 0.0 | 0.0 | 0.00 | 0.00 | 0.00 | 74 | 1002.3 |
| 20260502192820 | 66 | 91 | 1.0 | 1.0 | 0.00 | 0.00 | 0.00 | 75 | 1002.4 |
| 20260502192318 | 66 | 87 | 0.0 | 0.0 | 0.00 | 0.00 | 0.00 | 74 | 1002.3 |
| 20260502191815 | 67 | 87 | 0.0 | 0.0 | 0.00 | 0.00 | 0.00 | 74 | 1002.4 |
| 20260502191313 | 67 | 125 | 1.0 | 1.0 | 0.00 | 0.00 | 0.00 | 74 | 1002.7 |
| 20260502190810 | 66 | 125 | 1.0 | 1.0 | 0.00 | 0.00 | 0.00 | 74 | 1002.7 |
| 20260502190307 | 66 | 44 | 0.0 | 0.0 | 0.00 | 0.00 | 0.00 | 74 | 1003.0 |
| 20260502185802 | 67 | 44 | 0.0 | 0.0 | 0.00 | 0.00 | 0.00 | 74 | 1002.9 |
| 20260502185258 | 67 | 43 | 0.0 | 0.0 | 0.00 | 0.00 | 0.00 | 74 | 1003.0 |
| 20260502184755 | 67 | 43 | 0.0 | 1.0 | 0.00 | 0.00 | 0.00 | 73 | 1003.1 |
| 20260502184251 | 67 | 57 | 0.0 | 1.0 | 0.00 | 0.00 | 0.00 | 73 | 1002.8 |
| 20260502183748 | 67 | 58 | 0.0 | 1.0 | 0.00 | 0.00 | 0.00 | 73 | 1003.4 |
| 20260502183244 | 67 | 62 | 0.0 | 1.0 | 0.00 | 0.00 | 0.00 | 72 | 1003.1 |
| 20260502182739 | 68 | 63 | 0.0 | 0.0 | 0.00 | 0.00 | 0.00 | 71 | 1003.3 |
| 20260502182235 | 68 | 63 | 0.0 | 0.0 | 0.00 | 0.00 | 0.00 | 71 | 1003.1 |
| 20260502181732 | 68 | 63 | 0.0 | 1.0 | 0.00 | 0.00 | 0.00 | 71 | 1003.2 |
| 20260502181231 | 68 | 41 | 0.0 | 1.0 | 0.00 | 0.00 | 0.00 | 71 | 1003.2 |
| 20260502180728 | 69 | 42 | 0.0 | 1.0 | 0.00 | 0.00 | 0.00 | 70 | 1003.4 |
| 20260502180225 | 69 | 16 | 1.0 | 2.0 | 0.00 | 0.00 | 0.00 | 70 | 1003.2 |
| 20260502170149 | 70 | 41 | 1.0 | 1.0 | 0.00 | 0.00 | 0.00 | 68 | 1003.7 |
| 20260502164131 | 71 | 21 | 0.0 | 3.0 | 0.00 | 0.00 | 0.00 | 66 | 1003.8 |
| 20260502163627 | 71 | 355 | 5.0 | 6.0 | 0.00 | 0.00 | 0.00 | 66 | 1003.8 |
| 20260502163123 | 71 | 0 | 2.0 | 6.0 | 0.00 | 0.00 | 0.00 | 65 | 1003.7 |
| 20260502162619 | 71 | 343 | 5.0 | 7.0 | 0.00 | 0.00 | 0.00 | 64 | 1003.8 |
| 20260502162117 | 72 | 6 | 4.0 | 8.0 | 0.00 | 0.00 | 0.00 | 64 | 1003.7 |
| 20260502161614 | 72 | 348 | 4.0 | 7.0 | 0.00 | 0.00 | 0.00 | 63 | 1003.8 |
| 20260502161111 | 73 | 343 | 6.0 | 8.0 | 0.00 | 0.00 | 0.00 | 62 | 1003.5 |
| 20260502160609 | 73 | 347 | 6.0 | 7.0 | 0.00 | 0.00 | 0.00 | 62 | 1003.5 |
| 20260502160108 | 73 | 7 | 4.0 | 9.0 | 0.00 | 0.00 | 0.00 | 61 | 1003.8 |
| 20260502152022 | 76 | 349 | 5.0 | 8.0 | 0.00 | 0.00 | 0.00 | 51 | 1003.8 |
| 20260502151518 | 77 | 340 | 6.0 | 8.0 | 0.00 | 0.00 | 0.00 | 50 | 1004.3 |
| 20260502151016 | 78 | 269 | 6.0 | 11.0 | 0.00 | 0.00 | 0.00 | 49 | 1003.8 |
| 20260502150513 | 78 | 25 | 2.0 | 10.0 | 0.00 | 0.00 | 0.00 | 49 | 1003.9 |
| 20260502130347 | 78 | 342 | 6.0 | 11.0 | 0.00 | 0.00 | 0.00 | 33 | 1005.2 |
| 20260502123330 | 78 | 354 | 10.0 | 11.0 | 0.00 | 0.00 | 0.00 | 33 | 1005.6 |
| 20260502122827 | 80 | 351 | 5.0 | 8.0 | 0.00 | 0.00 | 0.00 | 32 | 1005.8 |
| 20260502122322 | 79 | 29 | 4.0 | 9.0 | 0.00 | 0.00 | 0.00 | 31 | 1005.8 |
| 20260502121821 | 80 | 314 | 4.0 | 10.0 | 0.00 | 0.00 | 0.00 | 31 | 1005.9 |
| 20260502121318 | 80 | 330 | 8.0 | 14.0 | 0.00 | 0.00 | 0.00 | 31 | 1005.6 |
| 20260502120815 | 78 | 28 | 6.0 | 13.0 | 0.00 | 0.00 | 0.00 | 30 | 1005.7 |
| 20260502120311 | 78 | 352 | 10.0 | 13.0 | 0.00 | 0.00 | 0.00 | 33 | 1005.8 |
| 20260502115809 | 79 | 334 | 8.0 | 9.0 | 0.00 | 0.00 | 0.00 | 30 | 1005.9 |
| 20260502115306 | 79 | 345 | 11.0 | 13.0 | 0.00 | 0.00 | 0.00 | 29 | 1006.0 |
| 20260502114802 | 80 | 69 | 5.0 | 10.0 | 0.00 | 0.00 | 0.00 | 30 | 1006.2 |
| 20260502114259 | 77 | 344 | 5.0 | 14.0 | 0.00 | 0.00 | 0.00 | 34 | 1006.2 |
| 20260502113756 | 78 | 348 | 7.0 | 14.0 | 0.00 | 0.00 | 0.00 | 36 | 1006.2 |
| 20260502113254 | 78 | 338 | 7.0 | 13.0 | 0.00 | 0.00 | 0.00 | 35 | 1006.3 |
| 20260502112751 | 77 | 335 | 13.0 | 17.0 | 0.00 | 0.00 | 0.00 | 36 | 1006.6 |
| 20260502112243 | 77 | 309 | 9.0 | 15.0 | 0.00 | 0.00 | 0.00 | 38 | 1006.8 |
| 20260502111740 | 78 | 40 | 9.0 | 16.0 | 0.00 | 0.00 | 0.00 | 38 | 1006.6 |
| 20260502111238 | 79 | 335 | 11.0 | 17.0 | 0.00 | 0.00 | 0.00 | 37 | 1006.5 |
| 20260502110735 | 80 | 325 | 9.0 | 13.0 | 0.00 | 0.00 | 0.00 | 38 | 1006.3 |
| 20260502110233 | 80 | 315 | 6.0 | 16.0 | 0.00 | 0.00 | 0.00 | 37 | 1006.6 |
| 20260502105731 | 82 | 301 | 11.0 | 13.0 | 0.00 | 0.00 | 0.00 | 34 | 1006.5 |
| 20260502105226 | 82 | 350 | 6.0 | 9.0 | 0.00 | 0.00 | 0.00 | 28 | 1006.5 |
| 20260502104724 | 84 | 347 | 9.0 | 10.0 | 0.00 | 0.00 | 0.00 | 29 | 1006.4 |
| 20260502104222 | 84 | 43 | 1.0 | 2.0 | 0.00 | 0.00 | 0.00 | 18 | 1006.5 |
| 20260502103720 | 84 | 340 | 7.0 | 8.0 | 0.00 | 0.00 | 0.00 | 18 | 1006.3 |
| 20260502103217 | 84 | 338 | 4.0 | 10.0 | 0.00 | 0.00 | 0.00 | 19 | 1006.5 |
| 20260502102713 | 84 | 150 | 0.0 | 2.0 | 0.00 | 0.00 | 0.00 | 18 | 1006.4 |
| 20260502102210 | 84 | 347 | 8.0 | 9.0 | 0.00 | 0.00 | 0.00 | 19 | 1006.4 |
| 20260502101708 | 84 | 283 | 5.0 | 6.0 | 0.00 | 0.00 | 0.00 | 19 | 1006.2 |
| 20260502101206 | 83 | 300 | 4.0 | 6.0 | 0.00 | 0.00 | 0.00 | 19 | 1006.2 |
| 20260502100704 | 85 | 314 | 9.0 | 10.0 | 0.00 | 0.00 | 0.00 | 18 | 1006.2 |
| 20260502100202 | 84 | 299 | 1.0 | 5.0 | 0.00 | 0.00 | 0.00 | 19 | 1006.5 |
| 20260502091136 | 81 | 279 | 1.0 | 3.0 | 0.00 | 0.00 | 0.00 | 18 | 1006.7 |
| 20260502090633 | 81 | 243 | 2.0 | 7.0 | 0.00 | 0.00 | 0.00 | 19 | 1006.9 |
| 20260502090131 | 84 | 251 | 3.0 | 3.0 | 0.00 | 0.00 | 0.00 | 18 | 1007.0 |
| 20260502071533 | 74 | 207 | 2.0 | 5.0 | 0.00 | 0.00 | 0.00 | 29 | 1008.2 |
| 20260502071031 | 75 | 253 | 5.0 | 6.0 | 0.00 | 0.00 | 0.00 | 31 | 1008.3 |
| 20260502070529 | 73 | 267 | 0.0 | 3.0 | 0.00 | 0.00 | 0.00 | 32 | 1008.2 |
| 20260502070027 | 73 | 225 | 4.0 | 6.0 | 0.00 | 0.00 | 0.00 | 34 | 1008.3 |
| 20260502065525 | 74 | 246 | 5.0 | 6.0 | 0.00 | 0.00 | 0.00 | 35 | 1008.4 |
| 20260502065023 | 73 | 233 | 2.0 | 2.0 | 0.00 | 0.00 | 0.00 | 37 | 1008.4 |
| 20260502064521 | 72 | 232 | 1.0 | 3.0 | 0.00 | 0.00 | 0.00 | 37 | 1008.4 |
| 20260502064018 | 72 | 188 | 3.0 | 6.0 | 0.00 | 0.00 | 0.00 | 38 | 1008.5 |
| 20260502063515 | 71 | 230 | 2.0 | 6.0 | 0.00 | 0.00 | 0.00 | 39 | 1008.6 |
| 20260502063013 | 71 | 264 | 1.0 | 2.0 | 0.00 | 0.00 | 0.00 | 41 | 1008.6 |
| 20260502062509 | 71 | 150 | 2.0 | 5.0 | 0.00 | 0.00 | 0.00 | 41 | 1009.0 |
| 20260502062009 | 70 | 280 | 3.0 | 7.0 | 0.00 | 0.00 | 0.00 | 42 | 1008.9 |
| 20260502061506 | 71 | 189 | 1.0 | 6.0 | 0.00 | 0.00 | 0.00 | 41 | 1008.8 |
| 20260502061002 | 71 | 164 | 1.0 | 3.0 | 0.00 | 0.00 | 0.00 | 42 | 1008.8 |
| 20260502060457 | 70 | 161 | 2.0 | 3.0 | 0.00 | 0.00 | 0.00 | 43 | 1008.9 |
| 20260502055954 | 70 | 188 | 5.0 | 6.0 | 0.00 | 0.00 | 0.00 | 43 | 1008.7 |
| 20260502055452 | 70 | 316 | 1.0 | 2.0 | 0.00 | 0.00 | 0.00 | 50 | 1008.9 |
| 20260502054952 | 69 | 2 | 1.0 | 1.0 | 0.00 | 0.00 | 0.00 | 53 | 1008.9 |
| 20260502054449 | 67 | 326 | 0.0 | 1.0 | 0.00 | 0.00 | 0.00 | 52 | 1008.8 |
| 20260502053946 | 67 | 326 | 1.0 | 2.0 | 0.00 | 0.00 | 0.00 | 55 | 1008.7 |
| 20260502053443 | 66 | 9 | 1.0 | 1.0 | 0.00 | 0.00 | 0.00 | 58 | 1008.4 |
| 20260502052941 | 67 | 10 | 0.0 | 0.0 | 0.00 | 0.00 | 0.00 | 63 | 1008.6 |
| 20260502052439 | 64 | 10 | 0.0 | 1.0 | 0.00 | 0.00 | 0.00 | 67 | 1008.7 |
| 20260502051937 | 64 | 9 | 0.0 | 1.0 | 0.00 | 0.00 | 0.00 | 68 | 1008.7 |
| 20260502051435 | 64 | 18 | 0.0 | 1.0 | 0.00 | 0.00 | 0.00 | 68 | 1008.6 |
| 20260502050932 | 64 | 18 | 0.0 | 1.0 | 0.00 | 0.00 | 0.00 | 70 | 1008.5 |
| 20260502050423 | 64 | 1 | 1.0 | 1.0 | 0.00 | 0.00 | 0.00 | 70 | 1008.7 |
| 20260502045920 | 62 | 25 | 0.0 | 1.0 | 0.00 | 0.00 | 0.00 | 72 | 1008.6 |
| 20260502045417 | 62 | 45 | 3.0 | 3.0 | 0.00 | 0.00 | 0.00 | 72 | 1008.4 |
| 20260502044914 | 61 | 32 | 2.0 | 2.0 | 0.00 | 0.00 | 0.00 | 73 | 1008.6 |
| 20260502044409 | 61 | 34 | 1.0 | 2.0 | 0.00 | 0.00 | 0.00 | 74 | 1008.5 |
| 20260502043906 | 60 | 39 | 0.0 | 2.0 | 0.00 | 0.00 | 0.00 | 75 | 1008.8 |
| 20260502043404 | 59 | 97 | 1.0 | 3.0 | 0.00 | 0.00 | 0.00 | 77 | 1008.7 |
| 20260502042903 | 58 | 51 | 0.0 | 2.0 | 0.00 | 0.00 | 0.00 | 78 | 1008.9 |
| 20260502042400 | 57 | 196 | 0.0 | 1.0 | 0.00 | 0.00 | 0.00 | 80 | 1008.7 |
| 20260502041858 | 56 | 42 | 0.0 | 1.0 | 0.00 | 0.00 | 0.00 | 82 | 1009.0 |
| 20260502041355 | 55 | 330 | 1.0 | 2.0 | 0.00 | 0.00 | 0.00 | 83 | 1008.9 |
| 20260502040852 | 55 | 80 | 1.0 | 3.0 | 0.00 | 0.00 | 0.00 | 84 | 1009.1 |
| 20260502040349 | 55 | 351 | 1.0 | 2.0 | 0.00 | 0.00 | 0.00 | 85 | 1009.1 |
| 20260502035845 | 54 | 155 | 2.0 | 2.0 | 0.00 | 0.00 | 0.00 | 86 | 1009.4 |
| 20260502035342 | 54 | 1 | 0.0 | 2.0 | 0.00 | 0.00 | 0.00 | 86 | 1009.4 |
| 20260502034839 | 54 | 0 | 0.0 | 1.0 | 0.00 | 0.00 | 0.00 | 86 | 1009.3 |
| 20260502034338 | 54 | 1 | 1.0 | 1.0 | 0.00 | 0.00 | 0.00 | 87 | 1009.4 |
| 20260502033836 | 54 | 39 | 0.0 | 1.0 | 0.00 | 0.00 | 0.00 | 87 | 1009.4 |
| 20260502033334 | 53 | 59 | 0.0 | 2.0 | 0.00 | 0.00 | 0.00 | 87 | 1009.3 |
| 20260502032830 | 53 | 8 | 0.0 | 1.0 | 0.00 | 0.00 | 0.00 | 87 | 1009.2 |
| 20260502032326 | 53 | 358 | 0.0 | 1.0 | 0.00 | 0.00 | 0.00 | 87 | 1009.2 |
| 20260502031824 | 53 | 353 | 0.0 | 2.0 | 0.00 | 0.00 | 0.00 | 87 | 1009.2 |
| 20260502031322 | 53 | 6 | 0.0 | 2.0 | 0.00 | 0.00 | 0.00 | 87 | 1008.9 |
| 20260502030820 | 53 | 30 | 1.0 | 2.0 | 0.00 | 0.00 | 0.00 | 88 | 1008.9 |
| 20260502030318 | 53 | 115 | 2.0 | 2.0 | 0.00 | 0.00 | 0.00 | 88 | 1008.9 |
| 20260502025814 | 53 | 107 | 2.0 | 2.0 | 0.00 | 0.00 | 0.00 | 88 | 1008.9 |
| 20260502025313 | 53 | 40 | 0.0 | 0.0 | 0.00 | 0.00 | 0.00 | 88 | 1008.8 |
| 20260502024810 | 54 | 55 | 1.0 | 2.0 | 0.00 | 0.00 | 0.00 | 88 | 1008.6 |